Flag for Canada Weather past 2 weeks in Drummondville, Quebec, Canada

Now
41 °F

Quite cool.


Feels Like: 34 °F
Forecast: 25 / 41 °F
Wind: 13 mph from Southwest

Location: Nicolet

Current Time: Dec 28, 2014 at 6:00:31 AM

Latest Report: Dec 28, 2014 at 5:00 AM


Visibility: N/A

Pressure: 29.58 "Hg

Humidity: 93%

Dew point: 39 °F

Location of DrummondvilleLocation

Historic Weather in Drummondville — Graph

°F

Drummondville temperature yesterday

Maximum temperature yesterday: 38 °F (at 10:00 PM)
Minimum temperature yesterday: 33 °F (at 3:00 AM)
Average temperature yesterday: 36 °F

Past Weeks' High & Low Weather Summary

 TemperatureHumidityPressure
High43 °F (Dec 25, 6:00 AM)100% (Dec 23, 7:00 PM)30.45 "Hg (Dec 23, 7:00 PM)
Low1 °F (Dec 20, 5:00 AM)63% (Dec 19, 12:00 PM)29.23 "Hg (Dec 25, 4:00 AM)
Average27 °F89%30.00 "Hg
* Reported Dec 13 5:00 AM — Dec 28 5:00 AM, Drummondville, Weather by CustomWeather, © 2014

Note: Actual official high and low records may vary slightly from our data, if they occured in-between our weather recording intervals... More about our weather records

Advertising

Drummondville weather history for previous 24 hours

 ConditionsComfort  
Time TempWeatherWind HumidityBarometerVisibility
5:00 AM
Dec 28
41 °FQuite cool.13 mph93%29.58 "HgN/A
4:00 AM41 °FQuite cool.12 mph95%29.59 "HgN/A
3:00 AM40 °FChilly.8 mph95%29.64 "HgN/A
2:00 AM35 °FChilly.1 mph96%29.68 "HgN/A
1:00 AM37 °FChilly.6 mph92%29.69 "HgN/A
12:00 AM38 °FChilly.3 mph90%29.71 "HgN/A
11:00 PM
Dec 27
35 °FChilly.No wind96%29.75 "HgN/A
10:00 PM38 °FChilly.5 mph86%29.80 "HgN/A
9:00 PM37 °FChilly.6 mph88%29.84 "HgN/A
8:00 PM36 °FChilly.6 mph88%29.93 "HgN/A
7:00 PM36 °FChilly.7 mph89%29.96 "HgN/A
6:00 PM36 °FChilly.5 mph90%30.01 "HgN/A
5:00 PM36 °FChilly.3 mph91%30.04 "HgN/A
4:00 PM36 °FChilly.2 mph90%30.03 "HgN/A
3:00 PM38 °FChilly.2 mph79%30.07 "HgN/A
2:00 PM36 °FChilly.1 mph84%30.07 "HgN/A
1:00 PM37 °FChilly.1 mph79%30.07 "HgN/A
12:00 PM36 °FChilly.3 mph85%30.10 "HgN/A
11:00 AM36 °FChilly.1 mph85%30.12 "HgN/A
10:00 AM35 °FChilly.1 mph89%30.14 "HgN/A
9:00 AM35 °FChilly.2 mph89%30.14 "HgN/A
8:00 AM33 °FChilly.2 mph92%30.13 "HgN/A
7:00 AM34 °FChilly.3 mph91%30.11 "HgN/A
6:00 AM34 °FChilly.6 mph90%30.10 "HgN/A
Weather by CustomWeather, © 2014

See weather overviewHow to use our weather pages